RH
80 80 80 80 80 81 81 82 82 82 83 83 85 85 88 92 85 28 9 18 22 59 53 12 12 11 16 15 19 24 24 27 28 31 33 35 37 36 33 34 34 31 33 33 39
80 80 80 81 83 81 81 82 83 84 84 85 85 85 88 92 23 9 34 49 55 66 11 10 12 12 10 12 14 18 24 26 24 23 29 34 36 36 34 34 37 39 36 36 39
78 81 82 82 82 81 81 83 82 84 84 86 87 87 89 71 13 8 69 53 63 46 9 9 11 12 11 11 14 18 23 17 22 26 27 31 35 33 36 37 32 37 40 41 40
82 82 82 82 82 81 83 83 83 84 85 87 87 87 88 27 12 11 67 73 66 16 9 10 12 13 11 13 13 19 16 13 16 24 30 34 31 34 34 33 29 29 36 39 41
82 82 82 82 82 82 83 83 84 85 86 86 87 85 40 9 8 9 58 59 19 10 10 11 14 13 12 12 12 15 12 11 11 14 27 32 34 34 35 29 31 29 37 38 38
82 82 82 82 82 82 83 84 85 86 85 86 85 90 20 8 7 15 20 18 11 9 10 10 13 11 11 11 13 12 11 12 14 20 27 32 31 37 31 30 34 34 38 36 36
82 82 82 81 82 82 83 84 86 85 85 85 83 47 16 7 7 9 13 11 9 8 10 10 10 11 11 12 11 10 14 13 13 21 24 30 37 38 29 33 35 36 37 36 34
82 83 83 83 81 82 83 85 86 86 85 85 82 32 11 8 8 9 9 9 9 8 8 9 10 10 11 10 10 13 15 17 12 21 25 30 24 24 29 34 34 34 37 37 35
84 84 84 83 84 84 85 86 87 83 83 80 41 20 8 24 9 7 8 9 8 8 9 9 10 11 10 11 12 15 17 16 14 15 15 27 27 25 31 32 35 33 33 36 34
86 87 86 85 86 86 87 86 87 80 56 38 28 22 11 8 9 9 9 8 9 8 10 10 10 12 9 10 17 19 14 13 15 12 13 16 19 16 27 33 33 31 32 34 33
88 88 86 85 84 85 62 37 26 25 25 10 9 13 11 10 9 8 9 9 9 10 10 11 12 13 10 11 13 13 12 13 12 12 17 16 18 18 19 36 34 29 32 30 30
89 89 88 86 84 83 54 23 12 16 14 13 13 12 10 10 9 9 8 10 10 10 11 11 10 9 10 10 11 12 12 11 10 16 16 19 20 19 24 27 35 32 31 31 28
91 91 90 86 84 68 30 20 15 17 13 13 12 11 11 11 10 8 8 8 10 11 10 9 9 9 9 10 11 10 11 11 12 12 17 22 18 22 27 38 37 33 30 29 31
91 91 90 86 69 30 24 21 19 20 13 14 11 11 12 11 10 7 6 8 10 11 10 9 8 11 10 11 10 11 9 10 12 14 19 20 20 22 24 27 39 35 34 29 30
90 89 90 97 36 30 26 22 22 21 14 10 11 10 11 12 9 8 6 8 11 10 11 11 10 10 10 10 10 11 11 13 14 12 14 17 18 19 21 22 24 24 28 30 28
90 90 85 64 44 29 24 20 18 18 21 12 12 12 12 11 10 10 9 9 10 12 11 12 9 11 10 9 10 9 11 11 11 11 16 16 20 19 19 26 26 24 24 24 27
92 93 80 37 22 26 24 18 18 16 14 14 12 12 11 12 12 11 12 12 13 16 14 12 10 10 10 11 9 11 10 12 14 15 17 12 20 18 18 22 28 29 27 24 26
91 89 74 36 27 25 19 16 22 15 12 10 12 11 12 11 11 11 12 13 11 12 13 13 14 10 9 10 11 10 9 11 20 15 13 12 18 17 18 21 25 28 29 29 34
93 41 32 28 30 29 18 18 18 16 14 11 12 12 12 11 11 12 12 11 11 11 15 14 13 9 9 9 9 12 12 8 8 9 13 12 13 18 17 23 25 24 26 29 34
37 26 23 27 28 24 17 30 18 16 14 10 14 12 13 12 12 11 13 14 14 12 10 14 18 11 9 9 9 10 9 10 10 18 20 13 15 16 24 26 25 25 25 27 30
36 18 24 21 21 18 17 20 18 14 15 12 12 13 12 14 14 13 13 19 18 18 13 11 14 14 12 12 11 11 11 10 8 11 14 14 15 14 22 26 27 23 27 28 29
25 16 21 19 17 16 18 21 39 16 14 13 13 13 14 15 15 15 16 19 19 18 15 13 11 15 13 10 10 10 11 10 13 19 12 14 15 14 19 24 26 24 26 27 32
20 18 18 16 16 17 21 18 18 16 17 16 17 17 17 18 19 16 19 20 18 18 22 16 15 18 15 11 13 14 12 10 9 10 20 19 18 16 19 24 25 27 26 26 30
25 19 18 18 22 21 22 21 19 17 18 19 20 18 19 20 19 21 18 19 18 18 52 35 14 19 19 18 16 17 14 14 11 15 15 16 16 14 26 30 32 35 33 30 32
30 29 34 19 23 23 23 22 21 21 18 19 21 20 21 23 22 21 20 17 16 34 24 17 22 18 18 16 17 18 15 14 17 16 17 15 16 16 32 36 40 37 37 36 37
32 33 28 28 34 28 36 27 23 21 22 21 21 20 19 22 21 22 20 19 19 18 19 17 25 23 25 16 17 20 17 15 14 15 14 14 16 29 35 38 41 42 41 43 42
37 36 39 51 29 25 28 31 28 26 22 23 22 22 22 21 22 19 16 16 16 21 22 23 20 23 26 15 18 24 19 17 16 14 16 18 26 30 38 43 44 43 42 44 44
Wind_Speed
10 10 10 10 10 10 10 11 11 12 12 13 13 13 14 14 17 7 5 5 2 7 7 3 6 2 4 3 3 1 3 6 8 6 6 2 4 2 0 5 4 6 2 9 20
10 10 11 10 10 10 10 11 12 12 13 14 14 14 14 13 8 8 6 3 4 7 6 4 1 3 3 2 1 4 3 6 4 5 4 1 4 4 6 6 6 7 7 16 21
11 11 11 11 11 10 10 11 11 12 13 14 14 14 13 15 8 4 6 5 7 8 6 4 3 5 1 1 4 3 4 8 6 6 5 2 5 4 6 5 6 10 13 19 21
12 12 12 12 12 11 11 11 11 12 13 13 14 14 14 7 4 6 6 7 9 9 7 4 5 4 3 3 3 4 2 5 6 2 4 4 2 4 8 4 3 3 14 19 20
12 12 12 12 12 12 12 12 12 12 13 13 14 13 8 8 2 4 1 5 12 10 8 5 5 3 4 5 7 5 10 10 9 3 8 3 6 5 7 6 3 5 15 19 18
12 12 12 12 12 12 12 12 13 13 13 12 12 14 7 9 5 4 4 9 8 11 7 6 2 4 5 4 6 11 12 9 3 3 4 8 6 4 3 4 6 11 16 17 17
12 12 12 12 13 13 13 13 13 13 12 10 9 7 7 4 2 2 4 3 9 7 6 2 2 7 5 6 7 9 11 7 3 1 2 6 9 10 4 8 9 12 13 15 15
13 12 11 12 13 13 13 14 15 13 10 8 6 6 5 4 1 6 6 5 6 4 3 2 2 5 6 7 7 7 7 6 5 3 4 6 9 6 9 11 11 12 14 15 16
11 11 11 10 11 12 13 15 14 6 4 5 7 6 3 5 8 7 8 5 9 7 4 2 4 5 8 9 10 7 7 8 5 2 7 6 12 7 6 12 12 13 15 16 16
11 10 9 9 8 10 12 13 2 8 6 5 4 7 6 6 8 9 5 7 5 9 8 8 7 11 9 10 6 4 8 8 9 3 8 12 17 13 10 13 14 14 15 17 18
12 10 8 7 6 8 10 5 7 7 7 5 3 3 7 5 7 9 8 8 6 10 12 9 11 13 9 3 7 9 11 11 12 7 8 10 13 15 8 13 15 14 14 16 18
13 10 8 5 4 3 7 6 5 7 4 7 7 6 4 3 9 10 9 10 8 11 5 8 13 11 1 5 8 9 11 9 7 2 7 12 17 9 9 10 14 14 14 15 15
12 9 6 3 1 5 8 7 2 4 6 6 4 4 3 8 6 15 15 10 9 8 11 13 6 3 6 8 10 13 9 8 11 11 6 11 3 6 4 1 7 13 15 15 15
11 8 4 5 3 5 6 4 6 4 8 7 8 6 7 6 7 8 13 9 7 8 5 8 5 7 9 8 7 14 4 8 10 10 8 5 7 6 5 4 4 7 13 16 17
12 6 4 12 3 5 7 3 6 5 7 6 7 6 5 7 14 9 10 9 5 5 7 7 7 9 10 9 6 10 5 11 10 13 5 5 10 9 1 6 5 3 8 14 17
10 6 6 6 5 4 3 5 6 9 6 8 7 11 12 8 7 10 11 9 3 8 10 11 3 7 11 8 8 10 14 16 12 9 9 6 7 7 7 10 5 4 5 7 14
11 8 10 2 3 0 4 6 8 5 4 9 9 12 14 10 8 11 13 14 9 9 9 8 14 9 9 14 14 11 16 9 5 8 2 7 3 6 5 10 6 10 9 4 7
5 14 9 5 2 3 6 7 3 2 5 4 7 11 10 11 8 10 12 11 11 9 8 6 10 13 10 8 11 6 10 8 5 4 4 6 4 7 4 3 3 4 6 3 3
6 5 4 3 7 5 8 8 5 4 2 7 12 13 9 10 4 9 9 6 4 8 6 2 4 7 8 5 7 8 8 8 10 7 9 4 3 14 4 4 3 7 8 7 7
4 4 4 4 7 7 8 4 3 3 1 4 7 5 10 12 9 8 7 3 1 3 11 3 7 3 9 4 4 9 6 7 5 4 5 4 4 8 8 6 6 9 10 11 5
6 5 6 4 5 7 2 6 2 4 2 3 3 7 5 7 3 3 4 6 4 0 5 8 7 4 5 12 3 7 9 7 8 6 9 5 4 9 7 8 7 8 9 10 9
5 3 5 4 6 2 1 3 1 3 2 2 3 6 3 2 2 3 2 5 4 4 2 2 8 9 13 6 5 10 12 9 7 6 2 7 5 9 9 8 7 7 8 8 7
1 3 4 4 4 4 4 4 5 5 6 2 3 5 2 3 2 2 2 4 4 4 6 3 7 9 14 13 10 8 8 11 9 7 8 8 2 7 11 9 8 8 9 7 7
4 4 5 2 1 4 2 3 4 6 7 4 4 1 2 1 1 0 2 3 2 4 3 3 13 11 13 16 8 7 8 10 14 11 9 8 10 9 11 8 8 8 9 7 5
4 5 5 3 4 2 2 1 2 2 3 4 3 3 2 3 4 5 3 5 6 5 5 7 13 15 13 14 13 13 17 17 13 16 15 14 6 4 8 7 7 7 8 8 7
4 4 2 2 0 3 2 3 2 3 4 3 0 1 2 4 4 8 4 4 5 2 6 6 10 9 16 16 14 16 16 17 17 17 12 16 10 12 9 6 8 9 9 9 9
4 1 6 2 1 5 3 2 2 3 3 3 4 6 4 4 6 9 9 10 11 9 10 9 8 8 16 15 9 15 18 19 19 17 13 15 7 7 8 7 8 8 9 10 10
Wind_Direction
356 355 352 348 341 340 338 337 333 330 331 327 328 327 323 321 299 223 255 21 18 155 211 233 230 271 224 30 7 269 255 56 38 2 38 79 206 161 178 163 203 152 27 118 146
352 351 348 343 339 334 332 331 329 331 327 325 325 324 323 325 276 248 36 330 246 178 231 261 300 274 147 31 9 314 347 21 339 327 328 144 232 176 212 187 176 153 117 135 156
347 345 342 337 334 331 329 326 324 324 323 326 322 320 317 309 265 107 32 246 195 242 266 294 284 273 283 9 9 9 10 354 7 333 282 302 216 207 235 226 215 185 159 158 164
339 338 338 334 331 329 326 323 322 319 321 323 319 317 313 258 234 85 341 242 209 256 235 245 246 230 279 349 21 272 308 355 321 342 239 250 284 228 241 284 14 188 168 168 175
338 337 336 333 330 326 324 322 319 316 316 318 315 318 283 225 250 46 240 130 180 207 228 242 257 269 288 342 324 262 337 318 334 275 239 220 238 255 250 250 205 196 171 178 180
335 333 332 330 327 324 322 319 315 312 310 313 311 308 257 241 92 47 103 154 183 198 198 235 333 349 284 318 322 329 307 309 341 17 223 235 246 225 186 190 181 172 176 181 184
333 330 328 326 323 321 319 316 311 305 302 300 302 289 254 266 96 30 182 218 177 208 194 168 291 261 340 296 346 306 304 293 29 26 282 263 244 235 194 180 176 174 179 180 184
330 327 324 323 320 320 317 313 303 295 284 275 270 257 266 119 279 237 176 145 187 198 283 113 278 290 297 307 257 299 274 306 65 269 107 254 308 137 162 187 187 184 178 186 185
327 324 322 320 318 316 314 311 300 273 224 212 230 260 162 140 203 156 195 160 154 163 122 154 244 281 253 270 268 206 310 325 345 272 310 245 302 66 180 201 199 189 183 188 188
324 312 309 308 313 315 308 297 98 180 199 225 262 243 201 147 131 149 169 175 161 159 168 210 226 237 226 246 264 353 307 311 315 357 278 282 275 284 186 226 211 198 193 191 195
316 309 302 299 300 315 295 195 201 179 216 306 73 343 107 105 165 180 172 171 171 203 213 201 231 222 244 40 300 294 295 297 303 14 302 302 302 306 254 210 230 210 198 201 202
315 310 299 290 283 294 269 246 7 358 191 226 258 274 231 310 165 163 190 205 207 214 206 204 230 242 230 253 264 265 280 293 306 107 296 330 312 3 345 219 229 231 214 210 208
316 309 302 279 234 226 233 243 320 315 254 147 193 239 192 209 208 169 198 203 213 210 216 252 73 67 208 223 246 249 263 315 336 320 223 320 74 35 62 282 238 228 228 220 216
316 304 279 128 226 149 215 187 230 281 233 125 174 148 178 234 162 143 209 198 200 243 208 248 199 234 236 240 254 282 58 296 308 307 338 343 340 62 38 88 195 229 227 225 212
322 307 243 223 8 215 74 253 221 231 192 143 140 106 164 234 128 169 190 211 220 163 236 106 190 215 234 243 298 288 301 302 293 289 287 160 279 109 128 29 353 236 224 224 225
315 277 181 182 226 284 303 161 195 228 107 141 137 178 180 190 152 139 186 231 318 251 232 271 240 267 253 274 243 283 273 257 245 265 243 81 306 67 32 0 342 343 313 241 212
316 204 200 227 61 8 216 211 216 270 166 148 172 177 192 165 150 179 188 202 228 218 205 199 220 224 243 248 234 239 260 273 243 192 49 79 231 323 35 13 340 327 341 287 213
34 148 200 275 297 272 208 230 226 105 95 117 167 169 184 159 165 175 189 219 215 269 283 292 158 196 169 259 310 262 312 303 293 263 39 130 350 62 15 341 286 1 18 13 182
173 191 189 163 209 259 245 234 64 59 55 156 154 165 164 179 252 200 220 254 336 208 268 233 193 144 201 268 261 132 232 2 288 202 249 74 24 109 77 114 83 53 46 48 144
252 211 98 103 175 232 253 61 89 7 305 217 164 252 161 173 207 212 171 81 251 276 274 349 271 196 126 201 199 270 3 238 196 273 282 78 269 52 43 79 47 39 27 27 56
241 210 96 174 241 231 274 64 61 59 304 280 162 151 118 145 253 176 136 101 8 287 263 276 255 155 206 209 293 175 223 223 299 305 312 256 96 74 48 46 33 33 22 22 32
283 198 128 250 223 256 136 17 253 42 89 120 41 67 74 77 150 166 158 34 18 333 272 222 290 266 273 93 293 274 287 275 255 187 212 308 319 69 55 74 45 30 21 19 33
284 99 157 262 223 174 126 119 33 39 49 37 91 29 55 71 241 281 130 105 25 7 6 30 253 273 249 175 187 230 210 263 280 296 262 290 90 108 73 74 52 34 9 353 359
260 171 152 182 348 304 171 105 124 53 66 54 77 126 165 181 76 47 191 134 353 343 20 245 268 270 285 318 334 285 233 232 270 282 291 227 288 324 65 51 42 35 21 9 23
343 60 5 158 118 34 283 324 163 110 64 23 97 57 7 262 253 256 273 269 206 123 230 277 273 274 273 272 275 277 275 272 249 273 281 303 314 14 78 59 45 31 39 43 26
359 326 162 70 225 246 156 69 337 97 335 108 19 93 309 286 325 312 306 275 294 196 256 277 275 276 270 267 261 267 261 258 256 252 257 266 273 95 106 89 62 50 42 38 21
27 120 286 143 210 250 63 37 51 333 117 43 347 291 252 24 331 310 295 287 281 281 286 278 278 267 267 269 280 267 251 247 254 249 247 255 62 141 110 91 56 46 43 33 21